Home   Weather   Latakia   Past weeks

Flag for Syria Past Weather in Latakia, Syria — Yesterday and Last 2 Weeks

Now
81 °F

Sunny.


Feels Like: 81 °F
Forecast: 68 / 83 °F
Wind: 7 mph from West

Location: Lattakia Airport

Current Time: May 26, 2018 at 3:03:46 pm

Latest Report: May 26, 2018 at 2:00 pm


Visibility: 10 mi

Pressure: 29.83 "Hg

Humidity: 48%

Dew Point: 59 °F

Location of LatakiaLocation

Past Weather in Latakia — Graph

°F

Latakia Temperature Yesterday

Maximum temperature yesterday: 81 °F (at 12:00 pm)
Minimum temperature yesterday: 68 °F (at 12:00 am)
Average temperature yesterday: 75 °F

High & Low Weather Summary for the Past Weeks

 TemperatureHumidityPressure
High97 °F (May 18, 2:00 pm)94% (May 13, 7:00 am)30.01 "Hg (May 13, 7:00 am)
Low57 °F (May 13, 9:00 am)14% (May 18, 3:00 pm)29.65 "Hg (May 12, 4:00 am)
Average74 °F65%29.86 "Hg
* Reported May 11 2:00 pm — May 26 2:00 pm, Latakia. Weather by CustomWeather, © 2018

Note: Actual official high and low records may vary slightly from our data, if they occured in-between our weather recording intervals... More about our weather records

Advertising

Latakia Weather History for the Previous 24 Hours

Scroll right to see more
 ConditionsComfort  
Time TempWeatherWind HumidityBarometerVisibility
2:00 pm
Sat, May 26
81 °FSunny.7 mph48%29.83 "Hg10 mi
1:00 pm81 °FSunny.8 mph51%29.83 "Hg10 mi
12:00 pm79 °FSunny.8 mph51%29.83 "Hg10 mi
11:00 am79 °FPassing clouds.10 mph54%29.83 "HgN/A
9:00 am75 °FScattered clouds.14 mph74%29.83 "HgN/A
8:00 am73 °FPassing clouds.12 mph74%29.83 "HgN/A
7:00 am68 °FScattered clouds.5 mph78%29.80 "HgN/A
6:00 am66 °FSunny.5 mph68%29.80 "Hg10 mi
4:00 am64 °FPassing clouds.5 mph60%29.77 "HgN/A
3:00 am63 °FClear.5 mph64%29.77 "Hg10 mi
2:00 am64 °FClear.5 mph52%29.77 "Hg10 mi
1:00 am64 °FClear.9 mph60%29.77 "Hg10 mi
12:00 am66 °FClear.7 mph73%29.77 "Hg10 mi
11:00 pm
Fri, May 25
68 °FClear.5 mph88%29.80 "Hg10 mi
10:00 pm70 °FClear.12 mph88%29.80 "Hg10 mi
9:00 pm72 °FPassing clouds.14 mph83%29.77 "HgN/A
8:00 pm73 °FPassing clouds.9 mph78%29.77 "HgN/A
7:00 pm75 °FPassing clouds.12 mph74%29.77 "HgN/A
6:00 pm77 °FPassing clouds.12 mph65%29.77 "HgN/A
5:00 pm79 °FPassing clouds.12 mph61%29.77 "HgN/A
4:00 pm77 °FScattered clouds.5 mph39%N/AN/A
3:00 pm81 °FScattered clouds.14 mph62%29.80 "HgN/A
Weather by CustomWeather, © 2018

See weather overview